Time,TemperatureF,DewpointF,PressureIn,WindDirection,WindDirectionDegrees,WindSpeedMPH,WindSpeedGustMPH,Humidity,HourlyPrecipIn,Conditions,Clouds,dailyrainin,SoftwareType,DateUTC
2013-04-07 00:22:00,64.2,58.2,29.87,ESE,118,3.2,10.0,81,0.00,,,0.00,WUHU216DAVISVP2,2013-04-07 05:22:00,
2013-04-07 00:52:00,63.7,58.1,29.87,SSE,147,4.2,9.0,82,0.00,,,0.00,WUHU216DAVISVP2,2013-04-07 05:52:00,
2013-04-07 01:22:00,63.2,58.3,29.87,SSE,152,2.1,7.0,84,0.00,,,0.00,WUHU216DAVISVP2,2013-04-07 06:22:00,
2013-04-07 01:52:00,63.0,58.4,29.87,South,186,0.0,7.0,85,0.00,,,0.00,WUHU216DAVISVP2,2013-04-07 06:52:00,
2013-04-07 02:22:00,62.5,58.3,29.87,SSE,149,3.2,6.3,86,0.00,,,0.00,WUHU216DAVISVP2,2013-04-07 07:22:00,
2013-04-07 02:52:00,61.9,58.3,29.86,SSE,160,0.0,5.0,88,0.00,,,0.00,WUHU216DAVISVP2,2013-04-07 07:52:00,
2013-04-07 03:22:00,61.3,58.0,29.85,SSE,150,0.0,2.0,89,0.00,,,0.00,WUHU216DAVISVP2,2013-04-07 08:22:00,
2013-04-07 03:52:00,61.7,58.7,29.85,SSE,155,0.0,1.0,90,0.00,,,0.00,WUHU216DAVISVP2,2013-04-07 08:52:00,
2013-04-07 04:22:00,62.7,59.4,29.84,SSE,155,0.0,2.1,89,0.00,,,0.00,WUHU216DAVISVP2,2013-04-07 09:22:00,
2013-04-07 04:52:00,63.3,60.0,29.84,SE,141,1.0,5.3,89,0.00,,,0.00,WUHU216DAVISVP2,2013-04-07 09:52:00,
2013-04-07 05:22:00,63.4,60.1,29.84,SE,137,1.0,5.0,89,0.00,,,0.00,WUHU216DAVISVP2,2013-04-07 10:22:00,
2013-04-07 05:52:00,63.1,59.8,29.84,ESE,120,1.0,3.2,89,0.00,,,0.00,WUHU216DAVISVP2,2013-04-07 10:52:00,
2013-04-07 06:22:00,62.9,59.9,29.85,SE,140,2.1,3.2,90,0.00,,,0.00,WUHU216DAVISVP2,2013-04-07 11:22:00,
2013-04-07 06:52:00,63.1,60.1,29.86,ESE,123,2.1,3.2,90,0.00,,,0.00,WUHU216DAVISVP2,2013-04-07 11:52:00,
2013-04-07 07:22:00,63.2,60.2,29.87,SE,143,0.0,5.3,90,0.00,,,0.00,WUHU216DAVISVP2,2013-04-07 12:22:00,
2013-04-07 07:52:00,63.3,60.3,29.88,ESE,123,2.1,4.2,90,0.00,,,0.00,WUHU216DAVISVP2,2013-04-07 12:52:00,
2013-04-07 08:22:00,63.5,60.5,29.88,SE,142,2.1,4.2,90,0.00,,,0.00,WUHU216DAVISVP2,2013-04-07 13:22:00,
2013-04-07 08:52:00,64.0,60.7,29.89,SE,138,2.1,6.0,89,0.00,,,0.00,WUHU216DAVISVP2,2013-04-07 13:52:00,
2013-04-07 09:22:00,64.5,61.2,29.89,SE,124,3.2,7.0,89,0.00,,,0.00,WUHU216DAVISVP2,2013-04-07 14:22:00,
2013-04-07 09:52:00,65.2,61.5,29.89,SSE,163,2.1,8.0,88,0.00,,,0.00,WUHU216DAVISVP2,2013-04-07 14:52:00,
2013-04-07 10:22:00,66.4,62.1,29.89,SSE,168,2.1,9.0,86,0.00,,,0.00,WUHU216DAVISVP2,2013-04-07 15:22:00,
2013-04-07 10:52:00,67.6,62.3,29.89,South,185,4.2,9.0,83,0.00,,,0.00,WUHU216DAVISVP2,2013-04-07 15:52:00,
2013-04-07 11:23:00,68.8,63.1,29.89,SE,126,7.3,10.0,82,0.00,,,0.00,WUHU216DAVISVP2,2013-04-07 16:23:00,
2013-04-07 11:53:00,71.8,64.7,29.88,SSE,168,5.3,8.4,78,0.00,,,0.00,WUHU216DAVISVP2,2013-04-07 16:53:00,
2013-04-07 12:23:00,75.2,65.3,29.86,SSE,156,1.0,10.5,71,0.00,,,0.00,WUHU216DAVISVP2,2013-04-07 17:23:00,
2013-04-07 12:53:00,78.4,65.0,29.85,South,187,10.5,11.0,63,0.00,,,0.00,WUHU216DAVISVP2,2013-04-07 17:53:00,
2013-04-07 13:23:00,79.5,64.4,29.83,SE,145,4.2,14.0,60,0.00,,,0.00,WUHU216DAVISVP2,2013-04-07 18:23:00,
2013-04-07 13:53:00,81.7,64.7,29.81,SE,143,9.4,12.6,56,0.00,,,0.00,WUHU216DAVISVP2,2013-04-07 18:53:00,
2013-04-07 14:23:00,83.1,64.7,29.80,SE,143,6.3,15.0,54,0.00,,,0.00,WUHU216DAVISVP2,2013-04-07 19:23:00,
2013-04-07 14:53:00,84.1,63.6,29.78,SSE,155,6.3,16.0,50,0.00,,,0.00,WUHU216DAVISVP2,2013-04-07 19:53:00,
2013-04-07 15:23:00,85.5,64.3,29.76,South,171,8.4,14.7,49,0.00,,,0.00,WUHU216DAVISVP2,2013-04-07 20:23:00,
2013-04-07 15:53:00,85.8,63.3,29.75,SSE,168,6.3,17.9,47,0.00,,,0.00,WUHU216DAVISVP2,2013-04-07 20:53:00,
2013-04-07 16:23:00,85.6,63.2,29.73,SSE,168,8.4,17.0,47,0.00,,,0.00,WUHU216DAVISVP2,2013-04-07 21:23:00,
2013-04-07 16:53:00,84.7,62.9,29.73,SE,136,5.3,15.0,48,0.00,,,0.00,WUHU216DAVISVP2,2013-04-07 21:53:00,
2013-04-07 17:23:00,83.7,63.2,29.72,SSE,150,8.4,15.0,50,0.00,,,0.00,WUHU216DAVISVP2,2013-04-07 22:23:00,
2013-04-07 17:53:00,82.2,62.4,29.72,ESE,120,10.5,16.0,51,0.00,,,0.00,WUHU216DAVISVP2,2013-04-07 22:53:00,
2013-04-07 18:23:00,81.2,62.1,29.73,South,191,7.3,14.7,52,0.00,,,0.00,WUHU216DAVISVP2,2013-04-07 23:23:00,
2013-04-07 18:53:00,79.3,62.2,29.73,ESE,119,5.3,16.0,56,0.00,,,0.00,WUHU216DAVISVP2,2013-04-07 23:53:00,
2013-04-07 19:23:00,76.5,62.0,29.74,ESE,110,9.4,14.0,61,0.00,,,0.00,WUHU216DAVISVP2,2013-04-08 00:23:00,
2013-04-07 19:53:00,74.2,61.9,29.75,ESE,110,10.5,14.7,65,0.00,,,0.00,WUHU216DAVISVP2,2013-04-08 00:53:00,
2013-04-07 20:23:00,72.3,61.6,29.75,ESE,108,9.4,14.7,69,0.00,,,0.00,WUHU216DAVISVP2,2013-04-08 01:23:00,
2013-04-07 20:53:00,70.8,61.7,29.77,SE,145,6.3,13.0,73,0.00,,,0.00,WUHU216DAVISVP2,2013-04-08 01:53:00,
2013-04-07 21:23:00,70.1,61.9,29.77,ESE,115,5.3,14.0,75,0.00,,,0.00,WUHU216DAVISVP2,2013-04-08 02:23:00,
2013-04-07 21:53:00,70.5,62.3,29.79,SSE,166,6.3,18.9,75,0.00,,,0.00,WUHU216DAVISVP2,2013-04-08 02:53:00,
2013-04-07 22:23:00,70.1,62.3,29.79,SSE,160,8.4,16.8,76,0.00,,,0.00,WUHU216DAVISVP2,2013-04-08 03:23:00,
2013-04-07 22:53:00,68.9,61.5,29.80,SSE,150,7.3,16.8,77,0.00,,,0.00,WUHU216DAVISVP2,2013-04-08 03:53:00,
2013-04-07 23:23:00,68.3,61.6,29.80,SE,133,4.2,15.0,79,0.00,,,0.00,WUHU216DAVISVP2,2013-04-08 04:23:00,
2013-04-07 23:53:00,68.3,62.0,29.80,SSE,150,6.3,12.0,80,0.00,,,0.00,WUHU216DAVISVP2,2013-04-08 04:53:00,